SL-16 DEB, 22369

Orbit data source: Space-Track

SL-16 DEB, 22369 is space debris in LEO originally from a launch on Fri, 25 Dec 1992 UTC launched from the Tyuratam Missile And Space Complex (TTMTR). Debris objects in space refer to the collection of defunct objects orbiting the Earth. Examples of debris include non-operational satellites, rocket bodies, and fragments generated from explosions, collisions, or faulty payload assembly.

Loading next visibility...
Identifier
22369, 1992-093BJ
Orbit
LEO
Country
Flag of CISCIS
Related business
Manufacturer
Unknown
Mission
Spacecraft
Bus & Motor
Unknown
Mass
Unknown
Launch date (UTC)
1992-12-25 (33 years ago)
Launch vehicle
Unknown
Launch site
Tyuratam Missile And Space Complex (TTMTR)
Object type
Payload
Rocket body
Debris
Shape & HBR
Unknown shape, 0.3 m
Radar Cross Section
Medium (>0.1 m² and <1 m²)

Expand to show TLE details & history
Last TLE update: 1 day ago

TLE from 1 day ago
0 SL-16 DEB
1 22369U 92093BJ  25305.19243474  .00000015  00000-0  44325-4 0  9992
2 22369  70.8863 232.3654 0102215 311.0565  48.1746 13.94430010670102
Epoch: 2025-11-01T04:37Z
TLE epoch observation values (Epoch: 2025-11-01T04:37:06.361Z)
Latitude
-0.00002°
Longitude
122.36285°
Altitude
866.238 km
Speed
7.445 km/s
True Right ascension
15h 29m 27s
True Declination
0° 00' 00"
Sunlit
Object was in daylight at epoch
Visualization orbit readout
Latitude
Unknown
Longitude
Unknown
Altitude
Unknown
Speed
Unknown
Apparent Right ascension
Unknown
Apparent Declination
Unknown
Sunlit
N/A
Visualization observer readout
Local Sidereal Time
12:18:17
Azimuth
Unknown
Elevation
Unknown
Doppler factor
Unknown
Orbital elements
Apogee altitude
985.61 km
Perigee altitude
836.596 km
Semi-major axis
7,289.24 km
Eccentricity
0.01022
Inclination
70.8863°
RAAN
232.3654°
Arg. of periapsis
311.0565°
True anomaly
49.05489°
Mean anomaly
48.1746°
Eccentric anomaly
48.614°
Mean motion
3.48754 °/min
Orbital period
103.22 mins
BSTAR
0.000044325
Loading maneuver chart data...
Computing Atmospheric mass density...
Loading historical data...
Loading historical data...
Loading historical data...
Loading historical data...
Loading historical data...
Loading historical data...
Loading historical data...

Documentation

Showing up to 5 results
|